Regional Weather Roundup
Issued by NWS

Home | Current Version | Previous Version | Text Only | Print | Product List | Glossary Off
Versions: 1 2 3 4 5 6 7 8 9 10 11 12 13 14 15 16 17 18 19 20 21 22 23 24 25 26 27 28 29 30 31 32 33 34 35 36 37 38 39 40 41 42 43 44 45 46 47 48 49 50

000
ASUS43 KLMK 292202
RWRKY
KENTUCKY REGIONAL WEATHER ROUNDUP
NATIONAL WEATHER SERVICE LOUISVILLE KY
600 PM EDT WED MAR 29 2017

NOTE "FAIR" INDICATES FEW OR NO CLOUDS BELOW 12,000 FEET
WITH NO SIGNIFICANT WEATHER AND/OR OBSTRUCTIONS TO VISIBILITY.

KYZ001>023-026-027-061>063-070>075-292300-
WESTERN AND SOUTH CENTRAL KENTUCKY

CITY           SKY/WX    TMP DP  RH WIND       PRES   REMARKS
PADUCAH        MOSUNNY   76  59  55 SE7       29.84F
HENDERSON      PTSUNNY   72  52  49 E12       29.89F
OWENSBORO      SUNNY     72  55  55 E14       29.92F
HOPKINSVILLE   MOSUNNY   76  57  52 E12       29.88F
BOWLING GREEN  SUNNY     76  55  48 E14G28    29.93F
GLASGOW        NOT AVBL
$$

KYZ024-025-028>034-038-045-046-053-292300-
NORTH CENTRAL KENTUCKY

CITY           SKY/WX    TMP DP  RH WIND       PRES   REMARKS
LOUISVILLE/SDF PTSUNNY   67  48  50 E13G20    30.01F
LOUISVILLE/LOU SUNNY     66  49  54 E9G18     30.02F
FORT KNOX      SUNNY     66  51  58 E12       29.97F
$$

KYZ035>037-039>044-047>052-055>060-089>105-292300-
NORTHEAST KENTUCKY

CITY           SKY/WX    TMP DP  RH WIND       PRES   REMARKS
LEXINGTON      MOSUNNY   64  49  57 E10       30.06F
COVINGTON      PTSUNNY   58  46  64 E10       30.08F
FRANKFORT      SUNNY     63  48  58 E12       30.04F
$$

KYZ054-064>069-076>088-106>120-292300-
SOUTHEAST KENTUCKY

CITY           SKY/WX    TMP DP  RH WIND       PRES   REMARKS
JACKSON        SUNNY     67  49  52 NE5       30.06F
LONDON         SUNNY     71  50  47 N7        30.03F
SOMERSET       NOT AVBL
MIDDLESBORO    SUNNY     78  48  34 NW8       30.01S
MONTICELLO     CLEAR     73  56  54 NW8G17    30.01F
$$





USA.gov is the U.S. government's official web portal to all federal, state and local government web resources and services.